New Bern, NC

7:25 PM EDT on September 21, 2017 (GMT -0400)
Craven County Regional

Weather History for KEWN - January, 2012

Change the Weather History Date:

Friday, January 13, 2012

  Actual Average Record
Temperature  
Mean Temperature 51 °F 44 °F  
Max Temperature 64 °F 54 °F 78 °F (2005)
Min Temperature 37 °F 34 °F 8 °F (1981)
Degree Days  
Heating Degree Days 14 21  
Month to date heating degree days 220 273  
Since 1 July heating degree days 1051 1267  
Cooling Degree Days 0 0  
Month to date cooling degree days 0 0  
Year to date cooling degree days 0 0  
Moisture  
Dew Point 26 °F    
Average Humidity 56    
Maximum Humidity 78    
Minimum Humidity 34    
Precipitation  
Precipitation 0.00 in 0.14 in 2.51 in (1975)
Month to date precipitation 1.00 1.71  
Year to date precipitation 1.00 1.71  
Snow  
Snow 0.00 in - - ()
Month to date snowfall 0.0  
Since 1 July snowfall 0.0  
Snow Depth 0.00 in    
Sea Level Pressure  
Sea Level Pressure 29.89 in    
Wind  
Wind Speed 12 mph (WSW)    
Max Wind Speed 33 mph    
Max Gust Speed 44 mph    
Visibility 10 miles    
Events      
T = Trace of Precipitation, MM = Missing Value Source: NWS Daily Summary

Daily Weather History Graph

Daily Weather History Graph

Search for Another Location

Airport or City:

Trip Planner

Search our weather history database for the weather conditions in past years. The results will help you decide how hot, cold, wet, or windy it might be!

Date:

Astronomy

Jan. 13, 2012 Rise Set
Actual Time 7:16 AM EST 5:17 PM EST
Civil Twilight 6:48 AM EST 5:44 PM EST
Nautical Twilight 6:17 AM EST 6:16 PM EST
Astronomical Twilight 5:47 AM EST 6:46 PM EST
Moon 10:13 PM EST (1/13) 9:42 AM EST (1/13)
Length of Visible Light 10h 56m
Length of Day
10h 00m
Waning Gibbous, 79% of the Moon is Illuminated
Jan 13
Waning Gibbous
Jan 16
Last Quarter
Jan 23
New
Jan 30
First Quarter
Feb 7
Full

Hourly Weather History & Observations

Time (EST) Temp. Windchill Dew Point Humidity Pressure Visibility Wind Dir Wind Speed Gust Speed Precip Events Conditions
12:54 AM 63.0 °F - 55.0 °F 75% 29.60 in 10.0 mi SSW 12.7 mph 25.3 mph N/A   Clear
1:54 AM 63.0 °F - 54.0 °F 72% 29.60 in 10.0 mi SW 12.7 mph - N/A   Mostly Cloudy
2:54 AM 63.0 °F - 48.9 °F 60% 29.61 in 10.0 mi WSW 17.3 mph 31.1 mph N/A   Mostly Cloudy
3:54 AM 59.0 °F - 39.0 °F 48% 29.64 in 10.0 mi West 17.3 mph 35.7 mph N/A   Clear
4:54 AM 53.1 °F - 34.0 °F 48% 29.70 in 10.0 mi WSW 28.8 mph 40.3 mph N/A   Clear
5:54 AM 43.0 °F 33.5 °F 21.9 °F 43% 29.79 in 10.0 mi West 24.2 mph 34.5 mph N/A   Clear
6:54 AM 39.0 °F 30.6 °F 19.9 °F 46% - 10.0 mi West 15.0 mph 27.6 mph N/A   Clear
7:54 AM 37.9 °F 29.2 °F 18.0 °F 45% - 10.0 mi West 15.0 mph 24.2 mph N/A   Clear
8:54 AM 37.9 °F 28.9 °F 17.1 °F 43% - 10.0 mi West 16.1 mph 25.3 mph N/A   Clear
9:54 AM 41.0 °F 34.3 °F 18.0 °F 40% - 10.0 mi West 11.5 mph 25.3 mph N/A   Clear
10:54 AM 42.1 °F 34.5 °F 19.0 °F 40% - 10.0 mi West 15.0 mph 25.3 mph N/A   Clear
11:54 AM 44.1 °F 38.1 °F 19.0 °F 37% 29.92 in 10.0 mi West 11.5 mph 23.0 mph N/A   Clear
12:54 PM 45.0 °F 38.5 °F 19.0 °F 36% 29.91 in 10.0 mi West 13.8 mph 25.3 mph N/A   Clear
1:54 PM 46.0 °F 39.9 °F 19.9 °F 35% 29.91 in 10.0 mi West 13.8 mph 20.7 mph N/A   Clear
2:54 PM 46.0 °F 39.6 °F 19.0 °F 34% 29.93 in 10.0 mi West 15.0 mph 21.9 mph N/A   Clear
3:54 PM 45.0 °F 38.9 °F 19.9 °F 37% 29.96 in 10.0 mi West 12.7 mph - N/A   Clear
4:54 PM 44.1 °F 40.1 °F 19.9 °F 38% 29.98 in 10.0 mi WSW 6.9 mph - N/A   Clear
5:54 PM 39.9 °F 36.7 °F 21.0 °F 47% 30.01 in 10.0 mi SW 4.6 mph - N/A   Clear
6:54 PM 39.0 °F 35.7 °F 21.9 °F 50% 30.03 in 10.0 mi SW 4.6 mph - N/A   Clear
7:54 PM 39.9 °F 35.8 °F 21.9 °F 49% 30.05 in 10.0 mi WSW 5.8 mph - N/A   Clear
8:54 PM 39.9 °F 35.8 °F 21.9 °F 49% 30.06 in 10.0 mi WSW 5.8 mph - N/A   Clear
9:54 PM 39.9 °F 35.8 °F 23.0 °F 51% 30.07 in 10.0 mi West 5.8 mph - N/A   Clear
10:54 PM 39.9 °F 36.7 °F 23.0 °F 51% 30.06 in 10.0 mi WSW 4.6 mph - N/A   Clear
11:54 PM 39.9 °F 36.7 °F 23.0 °F 51% 30.05 in 10.0 mi West 4.6 mph - N/A   Clear